Weather History for Sanford, ME

Change the Weather History Date:

Sunday, February 17, 2013

  Actual Average Record
Temperature  
Mean Temperature 22 °F -  
Max Temperature 28 °F 32 °F 53 °F (2006)
Min Temperature 15 °F 14 °F -5 °F (2014)
Degree Days  
Heating Degree Days 44    
Moisture  
Dew Point 8 °F    
Average Humidity 59    
Maximum Humidity 86    
Minimum Humidity 37    
Precipitation  
Precipitation 0.00 in - - ()
Sea Level Pressure  
Sea Level Pressure 29.43 in    
Wind  
Wind Speed 16 mph (NW)    
Max Wind Speed 30 mph    
Max Gust Speed 38 mph    
Visibility 4 miles    
Events      
Averages and records for this station are not official NWS values.
T = Trace of Precipitation, MM = Missing Value Source: NWS Daily Summary

Daily Weather History Graph

Daily Weather History Graph

Search for Another Location

Airport:

Trip Planner

Search our weather history database for the weather conditions in past years. The results will help you decide how hot, cold, wet, or windy it might be!

Date:

Astronomy

Feb. 17, 2013 Rise Set
Actual Time 6:37 AM EST 5:16 PM EST
Civil Twilight 6:08 AM EST 5:45 PM EST
Nautical Twilight 5:35 AM EST 6:19 PM EST
Astronomical Twilight 5:02 AM EST 6:52 PM EST
Moon 10:14 AM EST (2/17) 12:22 AM EST (2/17)
Length of Visible Light 11h 37m
Length of Day
10h 38m
Waxing Crescent, 49% of the Moon is Illuminated
Feb 17
Waxing Crescent
Feb 17
First Quarter
Feb 25
Full
Mar 4
Last Quarter
Mar 11
New

Hourly Weather History & Observations

Time (EST) Temp. Windchill Dew Point Humidity Pressure Visibility Wind Dir Wind Speed Gust Speed Precip Events Conditions
12:15 AM 28.4 °F 19.1 °F 10.4 °F 47% 29.71 in 10.0 mi North 10.4 mph - N/A   Overcast
12:35 AM 26.6 °F 13.1 °F 3.2 °F 37% 29.69 in 10.0 mi North 19.6 mph 27.6 mph N/A   Overcast
12:55 AM 26.6 °F 13.8 °F 6.8 °F 43% 29.67 in 10.0 mi North 17.3 mph 21.9 mph N/A   Overcast
1:15 AM 26.6 °F 15.7 °F 6.8 °F 43% 29.68 in 10.0 mi North 12.7 mph 20.7 mph N/A   Overcast
1:35 AM 26.6 °F 15.2 °F 5.0 °F 40% 29.69 in 10.0 mi North 13.8 mph - N/A   Overcast
1:55 AM 26.6 °F 13.4 °F 8.6 °F 47% 29.67 in 10.0 mi North 18.4 mph 24.2 mph N/A   Overcast
2:15 AM 26.6 °F 15.7 °F 3.2 °F 37% 29.65 in 10.0 mi North 12.7 mph 24.2 mph N/A   Overcast
2:35 AM 26.6 °F 16.2 °F 6.8 °F 43% 29.63 in 10.0 mi North 11.5 mph - N/A   Overcast
2:55 AM 26.6 °F 14.3 °F 5.0 °F 40% 29.63 in 10.0 mi North 16.1 mph 20.7 mph N/A   Overcast
3:15 AM 24.8 °F 14.0 °F 5.0 °F 43% 29.63 in 10.0 mi North 11.5 mph 21.9 mph N/A   Overcast
3:35 AM 24.8 °F 11.9 °F 6.8 °F 46% 29.61 in 10.0 mi North 16.1 mph 19.6 mph N/A   Overcast
3:55 AM 24.8 °F 13.4 °F 3.2 °F 40% 29.60 in 10.0 mi North 12.7 mph 23.0 mph N/A   Overcast
4:15 AM 24.8 °F 10.3 °F 6.8 °F 46% 29.59 in 10.0 mi North 20.7 mph 27.6 mph N/A   Overcast
4:35 AM 24.8 °F 12.9 °F 6.8 °F 46% 29.57 in 10.0 mi North 13.8 mph 20.7 mph N/A   Overcast
4:55 AM 24.8 °F 11.9 °F 10.4 °F 54% 29.57 in 10.0 mi North 16.1 mph 26.5 mph N/A   Overcast
5:15 AM 23.0 °F 8.7 °F 8.6 °F 54% 29.55 in 5.0 mi NNW 18.4 mph 24.2 mph N/A   Overcast
5:35 AM 21.2 °F 8.3 °F 15.8 °F 80% 29.54 in 4.0 mi NNW 13.8 mph 25.3 mph N/A   Overcast
5:55 AM 21.2 °F 6.8 °F 10.4 °F 63% 29.53 in 4.0 mi NNW 17.3 mph 27.6 mph N/A   Overcast
6:15 AM 21.2 °F 7.8 °F 15.8 °F 80% 29.50 in 3.0 mi NNW 15.0 mph 23.0 mph N/A   Overcast
6:35 AM 21.2 °F 7.3 °F 12.2 °F 68% 29.49 in 2.5 mi NNW 16.1 mph 21.9 mph N/A   Overcast
7:15 AM 21.2 °F 7.8 °F 12.2 °F 68% 29.45 in 1.0 mi NNW 15.0 mph 19.6 mph N/A   Overcast
7:35 AM 21.2 °F 9.5 °F 15.8 °F 80% 29.45 in 1.0 mi NW 11.5 mph 19.6 mph N/A   Overcast
7:55 AM 19.4 °F 6.6 °F 15.8 °F 86% 29.42 in 1.0 mi NNW 12.7 mph 21.9 mph N/A   Overcast
8:15 AM 19.4 °F 7.2 °F 12.2 °F 74% 29.41 in 1.2 mi NW 11.5 mph 16.1 mph N/A   Overcast
8:35 AM 21.2 °F 6.8 °F 17.6 °F 86% 29.38 in 1.0 mi NNW 17.3 mph 20.7 mph N/A   Overcast
8:55 AM 21.2 °F 8.3 °F 12.2 °F 68% 29.37 in 1.2 mi NW 13.8 mph - N/A   Overcast
9:15 AM 21.2 °F 9.5 °F 17.6 °F 86% 29.37 in 1.8 mi NNW 11.5 mph - N/A   Overcast
9:35 AM 21.2 °F 10.1 °F 12.2 °F 68% 29.36 in 0.8 mi NW 10.4 mph 19.6 mph N/A   Overcast
9:55 AM 21.2 °F 8.9 °F 17.6 °F 86% 29.34 in 0.8 mi NW 12.7 mph 19.6 mph N/A   Overcast
10:15 AM 21.2 °F 7.8 °F 12.2 °F 68% 29.33 in 0.8 mi NW 15.0 mph 19.6 mph N/A   Overcast
10:35 AM 21.2 °F 7.3 °F 15.8 °F 80% 29.32 in 0.8 mi NW 16.1 mph 24.2 mph N/A   Overcast
10:55 AM 21.2 °F 5.6 °F 14.0 °F 74% 29.31 in 0.5 mi NNW 20.7 mph 27.6 mph N/A   Overcast
11:15 AM 21.2 °F 6.4 °F 14.0 °F 74% 29.31 in 1.0 mi NNW 18.4 mph 26.5 mph N/A   Overcast
11:35 AM 21.2 °F 7.3 °F 15.8 °F 80% 29.30 in 1.0 mi NW 16.1 mph 26.5 mph N/A   Overcast
11:55 AM 21.2 °F 7.3 °F 10.4 °F 63% 29.29 in 0.8 mi NW 16.1 mph 29.9 mph N/A   Overcast
12:15 PM 21.2 °F 9.5 °F 15.8 °F 80% 29.29 in 1.0 mi NW 11.5 mph 24.2 mph N/A   Overcast
12:35 PM 21.2 °F 10.9 °F 14.0 °F 74% 29.28 in 1.0 mi NW 9.2 mph 20.7 mph N/A   Overcast
12:55 PM 21.2 °F 8.9 °F 14.0 °F 74% 29.27 in 0.8 mi NW 12.7 mph 27.6 mph N/A   Overcast
1:15 PM 21.2 °F 9.5 °F 15.8 °F 80% 29.26 in 0.8 mi WNW 11.5 mph 31.1 mph N/A   Overcast
1:35 PM 21.2 °F 8.3 °F 12.2 °F 68% 29.26 in 1.2 mi WNW 13.8 mph 23.0 mph N/A   Overcast
1:55 PM 21.2 °F 6.8 °F 17.6 °F 86% 29.25 in 1.5 mi WNW 17.3 mph 23.0 mph N/A   Overcast
2:15 PM 21.2 °F 6.0 °F 10.4 °F 63% 29.25 in 1.8 mi WNW 19.6 mph 26.5 mph N/A   Overcast
2:35 PM 21.2 °F 7.8 °F 12.2 °F 68% 29.26 in 4.0 mi West 15.0 mph 26.5 mph N/A   Mostly Cloudy
2:55 PM 21.2 °F 8.3 °F 6.8 °F 54% 29.26 in 10.0 mi West 13.8 mph 21.9 mph N/A   Overcast
3:16 PM 21.2 °F 6.4 °F 8.6 °F 58% 29.27 in 9.0 mi West 18.4 mph 23.0 mph N/A   Overcast
3:35 PM 21.2 °F 6.8 °F 3.2 °F 46% 29.28 in 5.0 mi West 17.3 mph 26.5 mph N/A   Overcast
3:55 PM 21.2 °F 6.8 °F 6.8 °F 54% 29.29 in 10.0 mi WNW 17.3 mph 23.0 mph N/A   Overcast
4:15 PM 19.4 °F 4.1 °F 3.2 °F 49% 29.29 in 2.0 mi WNW 18.4 mph 26.5 mph N/A   Overcast
4:35 PM 19.4 °F 4.1 °F 3.2 °F 49% 29.30 in 2.5 mi WNW 18.4 mph 31.1 mph N/A   Overcast
4:55 PM 19.4 °F 3.6 °F 1.4 °F 46% 29.31 in 4.0 mi West 19.6 mph 25.3 mph N/A   Overcast
5:15 PM 19.4 °F 1.8 °F 1.4 °F 46% 29.31 in 1.2 mi West 25.3 mph 34.5 mph N/A   Overcast
5:35 PM 17.6 °F -0.6 °F 1.4 °F 49% 29.32 in 1.5 mi West 25.3 mph 35.7 mph N/A   Overcast
5:55 PM 17.6 °F -0.6 °F 1.4 °F 49% 29.34 in 2.0 mi West 25.3 mph 32.2 mph N/A   Overcast
6:35 PM 15.8 °F -1.9 °F -0.4 °F 49% 29.36 in 2.0 mi WNW 21.9 mph 38.0 mph N/A   Overcast
6:55 PM 15.8 °F -1.9 °F 1.4 °F 53% 29.37 in 2.5 mi WNW 21.9 mph 34.5 mph N/A   Overcast
7:15 PM 15.8 °F -3.4 °F -0.4 °F 49% 29.37 in 2.5 mi West 26.5 mph 35.7 mph N/A   Overcast
7:35 PM 15.8 °F -2.3 °F 1.4 °F 53% 29.38 in 1.5 mi WNW 23.0 mph 31.1 mph N/A   Overcast
7:55 PM 15.8 °F -0.6 °F 1.4 °F 53% 29.40 in 3.0 mi WNW 18.4 mph 31.1 mph N/A   Overcast
8:15 PM 15.8 °F 0.3 °F -0.4 °F 49% 29.41 in 7.0 mi West 16.1 mph 27.6 mph N/A   Overcast
8:35 PM 15.8 °F -0.6 °F 1.4 °F 53% 29.42 in 6.0 mi West 18.4 mph 28.8 mph N/A   Overcast
8:55 PM 15.8 °F -1.1 °F -0.4 °F 49% 29.43 in 6.0 mi WNW 19.6 mph 29.9 mph N/A   Overcast
9:15 PM 15.8 °F -0.6 °F -0.4 °F 49% 29.44 in 3.0 mi West 18.4 mph 33.4 mph N/A   Overcast
9:35 PM 15.8 °F -1.5 °F 1.4 °F 53% 29.45 in 5.0 mi West 20.7 mph 29.9 mph N/A   Overcast
10:15 PM 15.8 °F -1.9 °F 1.4 °F 53% 29.46 in 4.0 mi West 21.9 mph 32.2 mph N/A   Overcast
10:35 PM 15.8 °F 0.3 °F -0.4 °F 49% 29.47 in 2.5 mi West 16.1 mph 32.2 mph N/A   Overcast
10:55 PM 15.8 °F -2.3 °F -0.4 °F 49% 29.47 in 5.0 mi West 23.0 mph 31.1 mph N/A   Overcast
11:15 PM 15.8 °F -0.6 °F 1.4 °F 53% 29.48 in 3.0 mi West 18.4 mph 34.5 mph N/A   Overcast
11:35 PM 15.8 °F -1.9 °F -0.4 °F 49% 29.49 in 4.0 mi West 21.9 mph 29.9 mph N/A   Overcast
11:55 PM 15.8 °F -4.4 °F -0.4 °F 49% 29.49 in 3.0 mi West 29.9 mph 38.0 mph N/A   Overcast